Location: Pinawa
(50.1500°N, 95.8830°W)
Time: 23:01:29
(UTC-06:00)

Amateur Radio Satellites - All Passes

Search period start: 28 November 2014 22:31
Search period end: 29 November 2014 22:31
Location: Pinawa, 50.1500°N, 95.8830°W

Satellite Date Start Highest point End Downlink Frequencies (MHz)
Time Altitude Azimuth
TISAT 1 28 Nov 22:31:52 22:35:16 24° 63° (ENE) 22:38:40 437.305
ZACube-1 28 Nov 22:35:01 22:38:37 28° 265° (W) 22:42:13 437.345
ANTELSAT 28 Nov 22:35:04 22:39:06 32° 96° (E) 22:43:12 437.575/2403.000
NANOSAT C BR1 28 Nov 22:42:03 22:45:36 25° 94° (E) 22:49:07 145.865
BEESAT 2 28 Nov 22:45:42 22:48:18 16° 339° (NNW) 22:50:55 435.950
BUGSAT 1 28 Nov 22:46:37 22:49:53 23° 93° (E) 22:53:07 437.445
VELOX 1 28 Nov 22:46:50 22:50:53 33° 264° (W) 22:54:56 145.980
MaSat-1 28 Nov 22:49:57 22:51:38 18° 49° (NE) 22:53:20 437.345
SPROUT 28 Nov 22:51:09 22:54:57 31° 66° (ENE) 22:58:45 437.525
QB50P1 28 Nov 22:52:14 22:56:03 32° 96° (E) 22:59:50 145.935-145.965
DELFI C3 28 Nov 22:53:49 22:54:43 11° 274° (W) 22:55:37 145.870
CUSAT 1 28 Nov 22:55:28 22:59:52 43° 74° (ENE) 23:05:39 437.405
ESTCUBE 1 28 Nov 22:56:06 23:00:38 64° 258° (WSW) 23:05:11 437.505/2401.250
50 SAT 28 Nov 22:57:24 23:00:56 29° 265° (W) 23:04:28 437.505
RS-15 28 Nov 22:58:17 23:09:10 56° 33° (NNE) 23:20:26 29.354- 29.394
FUNcube-1 28 Nov 23:11:04 23:13:09 13° 272° (W) 23:15:13 145.935
ITUPSAT 1 28 Nov 23:11:21 23:13:48 14° 53° (NE) 23:16:15 437.325
ISS 28 Nov 23:14:33 23:17:32 33° 148° (SSE) 23:20:32 145.825
CUBEBUG 1 28 Nov 23:15:45 23:19:59 43° 262° (W) 23:24:13 437.445
AISAT 28 Nov 23:16:20 23:19:27 18° 269° (W) 23:22:35 437.250
POPSAT HIP 1 28 Nov 23:17:18 23:21:28 56° 101° (E) 23:25:37 437.405
SWISSCUBE 28 Nov 23:20:10 23:23:18 18° 56° (ENE) 23:26:26 437.505
TIGRISAT 28 Nov 23:26:54 23:31:21 85° 285° (WNW) 23:35:53 435.000
HUMSAT D 28 Nov 23:32:28 23:34:16 13° 272° (W) 23:36:04 437.325/437.525
AIST 2 28 Nov 23:34:58 23:37:22 14° 343° (NNW) 23:39:46 435.215
DANDE 28 Nov 23:35:26 23:39:52 76° 78° (ENE) 23:45:57 436.750
UNISAT 6 28 Nov 23:42:27 23:46:51 61° 288° (WNW) 23:51:19 437.425
AUBIESAT-1 28 Nov 23:47:34 23:51:38 41° 61° (ENE) 23:56:01 437.475
BEESAT 28 Nov 23:49:24 23:53:25 27° 62° (ENE) 23:57:26 436.000
PCSat 28 Nov 23:50:22 23:52:55 13° 358° (N) 23:55:28 145.827
POLYITAN 1 28 Nov 23:52:53 23:57:06 65° 288° (WNW) 00:01:17 437.675
QB50P2 28 Nov 23:53:36 23:57:48 63° 288° (WNW) 00:01:59 145.880/145.840
M-CUBED/EXP-1 PRIME 28 Nov 23:54:58 23:59:08 51° 63° (ENE) 00:03:41 437.505
DUCHIFAT 1 28 Nov 23:57:31 00:01:40 59° 289° (WNW) 00:05:49 145.980
TISAT 1 29 Nov 00:06:49 00:10:54 44° 261° (W) 00:14:59 437.305
BEESAT 3 29 Nov 00:08:43 00:09:52 11° 359° (N) 00:11:01 437.485
ANTELSAT 29 Nov 00:11:55 00:15:55 34° 294° (WNW) 00:20:00 437.575/2403.000
NANOSAT C BR1 29 Nov 00:17:41 00:21:36 38° 292° (WNW) 00:25:30 145.865
BUGSAT 1 29 Nov 00:21:44 00:25:34 39° 292° (WNW) 00:29:20 437.445
MaSat-1 29 Nov 00:24:20 00:26:00 18° 247° (WSW) 00:27:42 437.345
BEESAT 2 29 Nov 00:27:03 00:28:18 11° 3° (N) 00:29:34 435.950
SPROUT 29 Nov 00:27:07 00:31:01 33° 264° (W) 00:34:56 437.525
QB50P1 29 Nov 00:28:13 00:31:56 31° 295° (WNW) 00:35:39 145.935-145.965
CUSAT 1 29 Nov 00:38:47 00:42:58 30° 265° (W) 00:48:16 437.405
Oscar 19 29 Nov 00:41:50 00:44:46 15° 87° (E) 00:47:42 437.125/150
ITUPSAT 1 29 Nov 00:46:07 00:50:56 78° 73° (ENE) 00:55:47 437.325
ISS 29 Nov 00:50:43 00:54:01 80° 347° (NNW) 00:57:19 145.825
POPSAT HIP 1 29 Nov 00:54:01 00:57:02 19° 300° (WNW) 01:00:01 437.405
SWISSCUBE 29 Nov 00:55:46 01:00:35 81° 256° (WSW) 01:05:27 437.505
KKS-1 29 Nov 01:00:47 01:04:34 28° 63° (ENE) 01:08:21 437.445
TIGRISAT 29 Nov 01:05:20 01:07:28 13° 304° (NW) 01:09:38 435.000
RS-15 29 Nov 01:11:01 01:21:59 65° 240° (WSW) 01:33:25 29.354- 29.394
AIST 2 29 Nov 01:16:03 01:17:47 12° 8° (N) 01:19:31 435.215
DANDE 29 Nov 01:20:14 01:23:12 16° 269° (W) 01:26:40 436.750
AUBIESAT-1 29 Nov 01:23:02 01:26:45 29° 261° (W) 01:30:46 437.475
BEESAT 29 Nov 01:26:26 01:31:03 47° 261° (W) 01:35:43 436.000
M-CUBED/EXP-1 PRIME 29 Nov 01:31:06 01:34:30 23° 264° (W) 01:38:09 437.505
YUBILEINY 29 Nov 01:32:41 01:40:25 37° 83° (E) 01:48:07 435.215
PCSat 29 Nov 01:34:44 01:38:34 19° 24° (NNE) 01:42:23 145.827
ITAMSAT 1 29 Nov 01:41:38 01:45:25 20° 90° (E) 01:49:11 435.822/435.867
BEESAT 3 29 Nov 01:46:58 01:49:46 17° 24° (NNE) 01:52:33 437.485
STARS 29 Nov 01:48:59 01:53:16 53° 70° (ENE) 01:57:33 437.465
BEESAT 2 29 Nov 02:05:06 02:08:12 19° 27° (NNE) 02:11:17 435.950
Oscar 19 29 Nov 02:19:38 02:24:50 88° 286° (WNW) 02:30:01 437.125/150
ITUPSAT 1 29 Nov 02:26:31 02:29:25 16° 272° (W) 02:32:20 437.325
ISS 29 Nov 02:27:31 02:30:48 70° 8° (N) 02:34:06 145.825
Gurwin Techsat 1B 29 Nov 02:32:28 02:37:16 33° 95° (E) 02:42:02 435.225
MOZHAYETS 4 29 Nov 02:32:47 02:33:12 10° 51° (NE) 02:33:37
KKS-1 29 Nov 02:36:54 02:41:05 39° 262° (W) 02:45:17 437.445
SWISSCUBE 29 Nov 02:37:32 02:39:15 12° 275° (W) 02:40:59 437.505
AIST 2 29 Nov 02:54:20 02:57:54 24° 31° (NNE) 03:01:26 435.215
SO-50 29 Nov 02:57:21 03:01:19 30° 118° (ESE) 03:05:24 436.795
PCSat 29 Nov 03:17:50 03:23:12 55° 47° (NE) 03:28:31 145.827
ITAMSAT 1 29 Nov 03:20:15 03:25:25 67° 289° (WNW) 03:30:32 435.822/435.867
BEESAT 3 29 Nov 03:24:40 03:28:51 58° 45° (NE) 03:32:58 437.485
RS-15 29 Nov 03:25:29 03:32:05 18° 264° (W) 03:38:51 29.354- 29.394
STARS 29 Nov 03:26:51 03:30:04 20° 268° (W) 03:33:19 437.465
YUBILEINY 29 Nov 03:28:05 03:36:47 62° 286° (WNW) 03:45:30 435.215
HORYU 2 29 Nov 03:42:03 03:46:31 61° 102° (ESE) 03:50:58 437.375
BEESAT 2 29 Nov 03:42:57 03:47:11 74° 48° (NE) 03:51:23 435.950
Oscar 19 29 Nov 04:00:15 04:03:29 17° 306° (NW) 04:06:43 437.125/150
ISS 29 Nov 04:04:13 04:07:24 46° 207° (SSW) 04:10:35 145.825
MOZHAYETS 4 29 Nov 04:04:57 04:09:28 58° 71° (ENE) 04:14:03
AO-7 29 Nov 04:05:13 04:12:59 40° 97° (E) 04:20:41 29.400- 29.500
PRISM 29 Nov 04:05:28 04:07:54 15° 57° (ENE) 04:10:21 437.425
Gurwin Techsat 1B 29 Nov 04:12:21 04:17:21 42° 294° (WNW) 04:22:19 435.225
CUBESAT XI-V 29 Nov 04:22:53 04:24:11 11° 52° (NE) 04:25:28 437.345
JAS-2 29 Nov 04:23:24 04:28:30 21° 84° (E) 04:33:12 435.910
AIST 2 29 Nov 04:32:41 04:37:01 77° 232° (SW) 04:41:17 435.215
STRAND 1 29 Nov 04:35:33 04:38:40 17° 54° (NE) 04:41:48 437.568
SO-50 29 Nov 04:37:13 04:41:41 50° 318° (NW) 04:46:19 436.795
ITAMSAT 1 29 Nov 05:01:34 05:04:00 13° 309° (NW) 05:06:25 435.822/435.867
PCSat 29 Nov 05:01:39 05:06:23 31° 248° (WSW) 05:11:05 145.827
BEESAT 3 29 Nov 05:03:30 05:06:45 22° 245° (WSW) 05:09:57 437.485
HORYU 2 29 Nov 05:19:33 05:22:49 20° 301° (WNW) 05:26:04 437.375
BEESAT 2 29 Nov 05:22:16 05:24:59 17° 247° (WSW) 05:27:40 435.950
CUTE-I 29 Nov 05:27:59 05:31:00 15° 87° (E) 05:33:59 437.470
YUBILEINY 29 Nov 05:30:15 05:35:46 18° 312° (NW) 05:41:18 435.215
O/OREOS (USA 219) 29 Nov 05:37:14 05:41:34 52° 111° (ESE) 05:45:56 437.305
PRISM 29 Nov 05:38:41 05:42:54 78° 256° (WSW) 05:47:11 437.425
ISS 29 Nov 05:42:49 05:43:24 10° 225° (SW) 05:43:59 145.825
MOZHAYETS 4 29 Nov 05:43:46 05:47:06 20° 270° (W) 05:50:28
CUBESAT XI-V 29 Nov 05:56:03 06:00:43 62° 72° (ENE) 06:05:24 437.345
AO-7 29 Nov 05:57:57 06:06:08 60° 298° (WNW) 06:14:18 29.400- 29.500
AIST 1 29 Nov 06:05:38 06:09:54 48° 75° (ENE) 06:14:06
JAS-2 29 Nov 06:07:24 06:14:37 85° 287° (WNW) 06:20:55 435.910
STRAND 1 29 Nov 06:11:59 06:17:09 85° 73° (ENE) 06:22:19 437.568
AIST 2 29 Nov 06:13:28 06:14:54 12° 251° (WSW) 06:16:20 435.215
SO-50 29 Nov 06:20:04 06:23:20 18° 341° (NNW) 06:26:39 436.795
Cubesat XI-IV 29 Nov 06:26:10 06:31:17 45° 98° (E) 06:36:21 437.490
CUTE-I 29 Nov 07:06:29 07:11:51 90° 106° (ESE) 07:17:09 437.470
O/OREOS (USA 219) 29 Nov 07:17:33 07:21:16 25° 312° (NW) 07:24:59 437.305
GONETS M04 29 Nov 07:23:05 07:31:03 40° 85° (E) 07:39:04
CUBESAT XI-V 29 Nov 07:35:14 07:38:35 19° 270° (W) 07:41:57 437.345
AIST 1 29 Nov 07:44:03 07:47:14 20° 274° (W) 07:50:24
AO-7 29 Nov 07:51:47 07:57:22 20° 322° (NW) 08:02:58 29.400- 29.500
JAS-2 29 Nov 07:53:21 07:58:36 23° 310° (NW) 08:03:28 435.910
STRAND 1 29 Nov 07:54:00 07:57:01 16° 272° (W) 08:00:04 437.568
SO-50 29 Nov 08:02:58 08:05:41 15° 6° (N) 08:08:26 436.795
Cubesat XI-IV 29 Nov 08:06:33 08:11:16 33° 298° (WNW) 08:15:57 437.490
HO-68 29 Nov 08:23:07 08:29:02 27° 91° (E) 08:34:53 435.675
GOMX 1 29 Nov 08:25:58 08:27:44 12° 88° (E) 08:29:31 467.674
CUTE 1.7 + AOD 2 29 Nov 08:27:18 08:30:19 18° 90° (E) 08:33:19 437.475
POPSAT HIP 1 29 Nov 08:42:22 08:43:51 12° 55° (NE) 08:45:20 437.405
CUTE-I 29 Nov 08:47:44 08:51:14 18° 306° (NW) 08:54:43 437.470
SEEDS 29 Nov 08:55:09 08:58:55 29° 95° (E) 09:02:40 437.485
TIGRISAT 29 Nov 08:55:22 08:58:28 20° 61° (ENE) 09:01:35 435.000
DOVE 4 29 Nov 09:03:51 09:07:11 22° 93° (E) 09:10:34 437.250
AAUSAT CUBESAT 2 29 Nov 09:04:36 09:08:17 28° 94° (E) 09:11:56 437.432
UKube-1 29 Nov 09:08:38 09:10:59 14° 89° (E) 09:13:20 .
UNISAT 6 29 Nov 09:10:29 09:14:05 27° 64° (ENE) 09:17:42 437.425
BRITE-PL 29 Nov 09:11:25 09:15:25 45° 99° (E) 09:19:28 437.365/2234.400
CINEMA 3 29 Nov 09:13:06 09:16:03 18° 91° (E) 09:19:03 145.822/145.860
POLYITAN 1 29 Nov 09:16:01 09:19:20 23° 62° (ENE) 09:22:40 437.675
Oscar 11 29 Nov 09:16:24 09:19:41 21° 91° (E) 09:22:57 145.826/435.025
QB50P2 29 Nov 09:16:30 09:19:51 23° 62° (ENE) 09:23:12 145.880/145.840
GONETS M04 29 Nov 09:18:57 09:27:36 57° 288° (WNW) 09:36:21
DUCHIFAT 1 29 Nov 09:19:59 09:23:24 24° 63° (ENE) 09:26:49 145.980
COMPASS 1 29 Nov 09:22:14 09:26:21 46° 99° (E) 09:30:27 437.405
CANX-2 29 Nov 09:28:06 09:32:25 76° 103° (ESE) 09:36:44 2200.000
ANTELSAT 29 Nov 09:39:03 09:43:10 49° 70° (ENE) 09:47:19 437.575/2403.000
NANOSAT C BR1 29 Nov 09:39:28 09:43:21 36° 67° (ENE) 09:47:14 145.865
BUGSAT 1 29 Nov 09:41:18 09:45:03 32° 66° (ENE) 09:48:48 437.445
SO-50 29 Nov 09:43:40 09:47:48 27° 30° (NNE) 09:51:58 436.795
DX 1 29 Nov 09:46:47 09:50:44 33° 97° (E) 09:54:39 434.975-435.025
QB50P1 29 Nov 09:49:42 09:53:45 44° 69° (ENE) 09:57:48 145.935-145.965
UWE-3 29 Nov 09:51:56 09:55:28 25° 94° (E) 09:59:03 435.000/436.395/437.385
CUBEBUG 2 29 Nov 09:59:14 10:03:05 33° 96° (E) 10:07:01 437.445
GOMX 1 29 Nov 10:02:16 10:06:27 77° 286° (WNW) 10:10:43 467.674
CUTE 1.7 + AOD 2 29 Nov 10:02:23 10:06:36 55° 289° (WNW) 10:10:48 437.475
HO-68 29 Nov 10:10:14 10:17:25 74° 292° (WNW) 10:24:32 435.675
POPSAT HIP 1 29 Nov 10:14:49 10:19:04 78° 74° (ENE) 10:23:19 437.405
ZACube-1 29 Nov 10:18:26 10:22:25 38° 97° (E) 10:26:28 437.345
DELFI C3 29 Nov 10:26:15 10:30:25 84° 104° (ESE) 10:34:34 145.870
TIGRISAT 29 Nov 10:30:44 10:34:54 54° 260° (W) 10:39:06 435.000
SEEDS 29 Nov 10:30:55 10:34:47 34° 293° (WNW) 10:38:39 437.485
VELOX 1 29 Nov 10:32:50 10:36:52 33° 96° (E) 10:40:51 145.980
50 SAT 29 Nov 10:33:23 10:36:55 28° 95° (E) 10:40:28 437.505
AAUSAT CUBESAT 2 29 Nov 10:40:10 10:44:02 35° 293° (WNW) 10:47:53 437.432
DOVE 4 29 Nov 10:41:13 10:45:10 42° 291° (WNW) 10:49:13 437.250
UKube-1 29 Nov 10:43:20 10:47:41 73° 287° (WNW) 10:52:00 .
ESTCUBE 1 29 Nov 10:45:10 10:48:32 20° 91° (E) 10:51:53 437.505/2401.250
UNISAT 6 29 Nov 10:46:49 10:50:47 37° 263° (W) 10:54:47 437.425
CINEMA 3 29 Nov 10:49:28 10:53:36 54° 289° (WNW) 10:57:51 145.822/145.860
BRITE-PL 29 Nov 10:50:36 10:53:45 21° 298° (WNW) 10:56:56 437.365/2234.400
POLYITAN 1 29 Nov 10:50:58 10:55:04 46° 261° (W) 10:59:10 437.675
QB50P2 29 Nov 10:51:28 10:55:33 45° 261° (W) 10:59:39 145.880/145.840
Oscar 11 29 Nov 10:51:55 10:56:09 50° 290° (WNW) 11:00:21 145.826/435.025
FUNcube-1 29 Nov 10:52:17 10:56:33 81° 104° (ESE) 11:00:53 145.935
DUCHIFAT 1 29 Nov 10:55:03 10:59:05 42° 261° (W) 11:03:09 145.980
COMPASS 1 29 Nov 10:58:31 11:01:51 23° 297° (WNW) 11:05:11 437.405
CUBEBUG 1 29 Nov 11:00:33 11:04:12 25° 94° (E) 11:07:49 437.445
AISAT 29 Nov 11:01:14 11:05:39 63° 102° (ESE) 11:10:01 437.250
CANX-2 29 Nov 11:05:18 11:07:51 16° 302° (WNW) 11:10:24 2200.000
HUMSAT D 29 Nov 11:09:34 11:13:45 78° 103° (ESE) 11:17:59 437.325/437.525
NANOSAT C BR1 29 Nov 11:15:40 11:19:19 27° 265° (W) 11:22:58 145.865
BUGSAT 1 29 Nov 11:16:47 11:20:34 31° 264° (W) 11:24:19 437.445
ANTELSAT 29 Nov 11:17:07 11:20:17 20° 269° (W) 11:23:29 437.575/2403.000
GONETS M04 29 Nov 11:21:41 11:26:51 16° 314° (NW) 11:32:03
DX 1 29 Nov 11:23:07 11:26:58 31° 295° (WNW) 11:30:48 434.975-435.025
SO-50 29 Nov 11:24:01 11:28:53 81° 231° (SW) 11:33:48 436.795
QB50P1 29 Nov 11:26:33 11:29:52 22° 267° (W) 11:33:12 145.935-145.965
UWE-3 29 Nov 11:28:11 11:32:10 40° 291° (WNW) 11:36:13 435.000/436.395/437.385
CUBEBUG 2 29 Nov 11:36:03 11:39:47 31° 294° (WNW) 11:43:35 437.445
YUBILEINY 29 Nov 11:36:04 11:42:54 25° 55° (NE) 11:49:40 435.215
GOMX 1 29 Nov 11:42:56 11:43:54 11° 305° (NW) 11:44:53 467.674
TISAT 1 29 Nov 11:47:49 11:51:05 21° 92° (E) 11:54:18 437.305
POPSAT HIP 1 29 Nov 11:53:35 11:55:32 13° 272° (W) 11:57:29 437.405
ZACube-1 29 Nov 11:55:08 11:58:42 27° 295° (WNW) 12:02:18 437.345
HO-68 29 Nov 11:59:02 12:04:03 21° 314° (NW) 12:09:03 435.675
Oscar 19 29 Nov 12:02:41 12:07:17 35° 64° (ENE) 12:11:54 437.125/150
DELFI C3 29 Nov 12:03:05 12:05:09 14° 303° (WNW) 12:07:13 145.870
50 SAT 29 Nov 12:08:37 12:12:16 32° 293° (WNW) 12:15:55 437.505
SPROUT 29 Nov 12:09:09 12:12:59 31° 95° (E) 12:16:48 437.525
VELOX 1 29 Nov 12:09:30 12:13:26 32° 295° (WNW) 12:17:21 145.980
CUSAT 1 29 Nov 12:15:34 12:17:26 18° 91° (E) 12:19:24 437.405
Gurwin Techsat 1B 29 Nov 12:21:07 12:24:14 16° 53° (NE) 12:27:21 435.225
ESTCUBE 1 29 Nov 12:21:19 12:25:46 55° 290° (WNW) 12:30:11 437.505/2401.250
UKube-1 29 Nov 12:21:38 12:23:05 12° 307° (NW) 12:24:32 .
FUNcube-1 29 Nov 12:30:06 12:32:23 14° 302° (WNW) 12:34:42 145.935
CUBEBUG 1 29 Nov 12:36:38 12:40:44 40° 292° (WNW) 12:44:47 437.445
AISAT 29 Nov 12:38:47 12:41:53 19° 301° (WNW) 12:44:57 437.250
ITUPSAT 1 29 Nov 12:43:43 12:46:23 15° 88° (E) 12:49:02 437.325
HUMSAT D 29 Nov 12:46:45 12:49:03 15° 302° (WNW) 12:51:22 437.325/437.525
SWISSCUBE 29 Nov 12:52:34 12:55:59 19° 90° (E) 12:59:24 437.505
DANDE 29 Nov 12:57:41 13:00:14 56° 100° (E) 13:02:56 436.750
AUBIESAT-1 29 Nov 13:01:17 13:04:46 19° 95° (E) 13:08:10 437.475
ITAMSAT 1 29 Nov 13:03:47 13:08:47 48° 67° (ENE) 13:13:47 435.822/435.867
SO-50 29 Nov 13:06:07 13:08:44 15° 250° (WSW) 13:11:22 436.795
M-CUBED/EXP-1 PRIME 29 Nov 13:08:55 13:12:55 24° 97° (E) 13:16:48 437.505
HORYU 2 29 Nov 13:10:56 13:13:30 15° 56° (ENE) 13:16:04 437.375
AO-7 29 Nov 13:19:24 13:25:41 25° 43° (NE) 13:31:59 29.400- 29.500
BEESAT 29 Nov 13:22:12 13:26:31 32° 95° (E) 13:30:47 436.000
TISAT 1 29 Nov 13:23:07 13:27:09 45° 291° (WNW) 13:31:10 437.305
YUBILEINY 29 Nov 13:32:21 13:41:08 86° 80° (E) 13:49:51 435.215
RS-15 29 Nov 13:37:09 13:40:39 12° 92° (E) 13:44:07 29.354- 29.394
Oscar 19 29 Nov 13:41:49 13:46:35 39° 263° (W) 13:51:24 437.125/150
SPROUT 29 Nov 13:45:16 13:49:05 32° 294° (WNW) 13:52:53 437.525
MaSat-1 29 Nov 13:56:36 13:57:45 12° 111° (ESE) 13:58:53 437.345
Gurwin Techsat 1B 29 Nov 13:58:06 14:03:24 79° 73° (ENE) 14:08:45 435.225
CUSAT 1 29 Nov 13:58:54 14:00:34 15° 296° (WNW) 14:02:20 437.405
O/OREOS (USA 219) 29 Nov 14:03:25 14:07:30 33° 52° (NE) 14:11:34 437.305
ITUPSAT 1 29 Nov 14:20:05 14:24:55 83° 286° (WNW) 14:29:43 437.325
KKS-1 29 Nov 14:23:34 14:27:26 28° 95° (E) 14:31:16 437.445
SWISSCUBE 29 Nov 14:29:32 14:34:18 63° 289° (WNW) 14:39:01 437.505
AUBIESAT-1 29 Nov 14:35:17 14:40:13 71° 293° (WNW) 14:45:00 437.475
VERMONT LUNAR 29 Nov 14:35:26 14:37:44 16° 170° (S) 14:40:02 437.305
JAS-2 29 Nov 14:40:00 14:45:41 23° 50° (NE) 14:51:17 435.910
PHONESAT 2.4 29 Nov 14:40:38 14:42:53 15° 167° (SSE) 14:45:08 2401.200-2431.200
M-CUBED/EXP-1 PRIME 29 Nov 14:43:23 14:48:15 57° 296° (WNW) 14:53:00 437.505
ITAMSAT 1 29 Nov 14:44:01 14:48:30 29° 266° (W) 14:53:00 435.822/435.867
HORYU 2 29 Nov 14:45:09 14:49:35 83° 255° (WSW) 14:54:04 437.375
BEESAT 29 Nov 15:00:00 15:04:26 38° 294° (WNW) 15:08:50 436.000
AO-7 29 Nov 15:09:01 15:17:17 76° 66° (ENE) 15:25:38 29.400- 29.500
STARS 29 Nov 15:10:48 15:15:09 56° 101° (E) 15:19:28 437.465
MaSat-1 29 Nov 15:29:24 15:31:56 35° 306° (NW) 15:34:18 437.345
YUBILEINY 29 Nov 15:30:19 15:36:52 25° 283° (WNW) 15:43:24 435.215
RS-15 29 Nov 15:39:41 15:50:06 54° 116° (ESE) 16:00:33 29.354- 29.394
Gurwin Techsat 1B 29 Nov 15:40:31 15:44:01 18° 272° (W) 15:47:32 435.225
O/OREOS (USA 219) 29 Nov 15:42:50 15:46:56 36° 252° (WSW) 15:51:01 437.305
MOZHAYETS 4 29 Nov 15:58:32 15:59:16 10° 84° (E) 16:00:00
ITUPSAT 1 29 Nov 15:59:29 16:02:06 15° 306° (NW) 16:04:41 437.325
KKS-1 29 Nov 16:00:04 16:04:10 37° 293° (WNW) 16:08:15 437.445
SWISSCUBE 29 Nov 16:09:40 16:11:15 12° 309° (NW) 16:12:51 437.505
AUBIESAT-1 29 Nov 16:11:38 16:14:23 15° 313° (NW) 16:17:07 437.475
VERMONT LUNAR 29 Nov 16:13:00 16:15:26 17° 187° (S) 16:17:51 437.305
Cubesat XI-IV 29 Nov 16:14:49 16:18:47 22° 56° (ENE) 16:22:45 437.490
PHONESAT 2.4 29 Nov 16:18:16 16:20:53 18° 184° (S) 16:23:30 2401.200-2431.200
M-CUBED/EXP-1 PRIME 29 Nov 16:20:13 16:22:20 13° 315° (NW) 16:24:26 437.505
JAS-2 29 Nov 16:21:48 16:29:35 74° 71° (ENE) 16:37:21 435.910
HORYU 2 29 Nov 16:25:58 16:27:01 11° 274° (W) 16:28:03 437.375
STARS 29 Nov 16:48:03 16:51:18 21° 300° (WNW) 16:54:33 437.465
CUTE-I 29 Nov 16:53:46 16:58:42 39° 64° (ENE) 17:03:39 437.470
AO-7 29 Nov 17:03:52 17:10:52 30° 267° (W) 17:17:57 29.400- 29.500
HO-68 29 Nov 17:15:58 17:17:20 11° 33° (NNE) 17:18:42 435.675
PRISM 29 Nov 17:19:36 17:21:00 11° 87° (E) 17:22:23 437.425
GONETS M04 29 Nov 17:26:46 17:34:02 27° 57° (ENE) 17:41:13
MOZHAYETS 4 29 Nov 17:32:38 17:37:20 76° 103° (ESE) 17:41:59
CUBESAT XI-V 29 Nov 17:50:38 17:52:08 11° 85° (E) 17:53:38 437.345
RS-15 29 Nov 17:51:35 18:02:23 62° 322° (NW) 18:13:22 29.354- 29.394
Cubesat XI-IV 29 Nov 17:52:59 17:58:21 75° 256° (WSW) 18:03:44 437.490
PHONESAT 2.4 29 Nov 17:57:46 17:58:48 11° 201° (SSW) 17:59:51 2401.200-2431.200
PCSat 29 Nov 18:06:14 18:09:41 17° 106° (ESE) 18:13:09 145.827
JAS-2 29 Nov 18:08:31 18:15:11 30° 271° (W) 18:21:54 435.910
STRAND 1 29 Nov 18:18:42 18:22:28 20° 90° (E) 18:26:12 437.568
CUTE-I 29 Nov 18:33:53 18:38:49 37° 264° (W) 18:43:46 437.470
AIST 1 29 Nov 18:40:50 18:44:18 23° 87° (E) 18:47:48
BRITE-PL 29 Nov 18:51:09 18:53:31 14° 58° (ENE) 18:55:49 437.365/2234.400
CANX-2 29 Nov 18:52:26 18:54:37 14° 57° (ENE) 18:56:48 2200.000
PRISM 29 Nov 18:52:55 18:57:12 88° 285° (WNW) 19:01:25 437.425
HO-68 29 Nov 18:56:41 19:03:01 35° 56° (NE) 19:09:21 435.675
BEESAT 3 29 Nov 19:02:31 19:05:49 23° 116° (ESE) 19:09:09 437.485
MOZHAYETS 4 29 Nov 19:10:58 19:14:01 18° 302° (WNW) 19:17:04
BEESAT 2 29 Nov 19:20:58 19:24:37 31° 119° (ESE) 19:28:21 435.950
GONETS M04 29 Nov 19:23:13 19:32:07 87° 262° (W) 19:40:54
CUTE 1.7 + AOD 2 29 Nov 19:25:01 19:28:26 24° 63° (ENE) 19:31:52 437.475
CUBESAT XI-V 29 Nov 19:25:39 19:30:22 83° 104° (ESE) 19:35:00 437.345
Cubesat XI-IV 29 Nov 19:37:16 19:39:23 12° 275° (W) 19:41:30 437.490
GOMX 1 29 Nov 19:38:07 19:41:48 25° 64° (ENE) 19:45:21 467.674
DELFI C3 29 Nov 19:46:48 19:48:49 14° 57° (ENE) 19:50:50 145.870
PCSat 29 Nov 19:46:57 19:52:22 89° 305° (NW) 19:57:51 145.827
SEEDS 29 Nov 19:52:07 19:56:00 37° 68° (ENE) 19:59:55 437.485
STRAND 1 29 Nov 19:57:03 20:02:08 65° 289° (WNW) 20:07:10 437.568
AAUSAT CUBESAT 2 29 Nov 20:00:33 20:04:20 35° 67° (ENE) 20:08:10 437.432
RS-15 29 Nov 20:07:14 20:17:16 38° 354° (N) 20:27:34 29.354- 29.394
UKube-1 29 Nov 20:07:56 20:11:24 24° 62° (ENE) 20:14:53 .
AIST 2 29 Nov 20:13:32 20:17:38 50° 123° (ESE) 20:21:49 435.215
DOVE 4 29 Nov 20:14:12 20:18:19 40° 69° (ENE) 20:22:17 437.250
Oscar 11 29 Nov 20:15:44 20:19:27 29° 65° (ENE) 20:23:11 145.826/435.025
AIST 1 29 Nov 20:17:32 20:21:44 42° 286° (WNW) 20:25:58
COMPASS 1 29 Nov 20:18:26 20:22:32 58° 72° (ENE) 20:26:41 437.405
FUNcube-1 29 Nov 20:18:55 20:21:21 15° 59° (ENE) 20:23:47 145.935
CINEMA 3 29 Nov 20:19:41 20:23:21 29° 66° (ENE) 20:26:58 145.822/145.860
CANX-2 29 Nov 20:25:44 20:29:58 84° 257° (WSW) 20:34:15 2200.000
BRITE-PL 29 Nov 20:26:45 20:31:32 90° 254° (WSW) 20:35:59 437.365/2234.400
AISAT 29 Nov 20:29:42 20:32:21 16° 57° (ENE) 20:35:00 437.250
PRISM 29 Nov 20:30:08 20:32:06 13° 305° (NW) 20:34:03 437.425
HUMSAT D 29 Nov 20:33:15 20:35:20 14° 58° (ENE) 20:37:25 437.325/437.525
BEESAT 3 29 Nov 20:39:42 20:43:45 53° 315° (NW) 20:47:53 437.485
HO-68 29 Nov 20:43:15 20:50:22 63° 257° (WSW) 20:57:33 435.675
DX 1 29 Nov 20:46:48 20:51:04 53° 70° (ENE) 20:55:20 434.975-435.025
UWE-3 29 Nov 20:54:02 20:57:50 35° 67° (ENE) 21:01:38 435.000/436.395/437.385
BEESAT 2 29 Nov 20:58:51 21:02:49 42° 319° (NW) 21:06:51 435.950
CUTE 1.7 + AOD 2 29 Nov 21:00:10 21:04:11 41° 262° (W) 21:08:14 437.475
CUBEBUG 2 29 Nov 21:02:25 21:06:27 48° 70° (ENE) 21:10:28 437.445
CUBESAT XI-V 29 Nov 21:04:22 21:07:12 16° 303° (WNW) 21:10:02 437.345
GOMX 1 29 Nov 21:15:28 21:19:49 42° 262° (W) 21:23:57 467.674
ZACube-1 29 Nov 21:19:19 21:23:22 53° 71° (ENE) 21:27:26 437.345
DELFI C3 29 Nov 21:19:27 21:23:32 83° 256° (WSW) 21:27:40 145.870
GONETS M04 29 Nov 21:21:23 21:27:40 23° 285° (WNW) 21:33:56
50 SAT 29 Nov 21:26:50 21:30:28 34° 67° (ENE) 21:34:08 437.505
SEEDS 29 Nov 21:28:26 21:31:57 26° 266° (W) 21:35:30 437.485
PCSat 29 Nov 21:32:03 21:36:31 25° 328° (NNW) 21:41:01 145.827
VELOX 1 29 Nov 21:35:07 21:39:29 54° 70° (ENE) 21:43:51 145.980
AAUSAT CUBESAT 2 29 Nov 21:36:32 21:40:06 27° 266° (W) 21:43:42 437.432
STRAND 1 29 Nov 21:38:11 21:40:24 13° 310° (NW) 21:42:36 437.568
UKube-1 29 Nov 21:43:09 21:47:20 46° 260° (W) 21:51:34 .
ESTCUBE 1 29 Nov 21:49:18 21:53:21 33° 65° (ENE) 21:57:26 437.505/2401.250
DANDE 29 Nov 21:49:32 21:51:49 13° 64° (ENE) 21:54:23 436.750
Oscar 11 29 Nov 21:51:35 21:55:32 35° 263° (W) 21:59:33 145.826/435.025
DOVE 4 29 Nov 21:52:37 21:56:16 25° 266° (W) 21:59:47 437.250
AIST 2 29 Nov 21:52:38 21:56:29 31° 324° (NW) 22:00:22 435.215
FUNcube-1 29 Nov 21:53:05 21:57:14 71° 257° (WSW) 22:01:24 145.935
COMPASS 1 29 Nov 21:55:57 21:58:40 17° 270° (W) 22:01:24 437.405
CINEMA 3 29 Nov 21:56:41 22:00:33 33° 264° (W) 22:04:22 145.822/145.860
CUBEBUG 1 29 Nov 22:01:14 22:05:22 39° 67° (ENE) 22:09:29 437.445
AISAT 29 Nov 22:03:57 22:08:26 81° 256° (WSW) 22:12:56 437.250
CANX-2 29 Nov 22:06:22 22:06:38 10° 275° (W) 22:06:54 2200.000
HUMSAT D 29 Nov 22:06:28 22:10:35 81° 256° (WSW) 22:14:44 437.325/437.525
BRITE-PL 29 Nov 22:08:49 22:10:38 12° 273° (W) 22:12:24 437.365/2234.400
TIGRISAT 29 Nov 22:18:09 22:21:41 22° 93° (E) 22:25:14 435.000
BEESAT 3 29 Nov 22:20:13 22:22:53 16° 338° (NNW) 22:25:35 437.485
DX 1 29 Nov 22:24:24 22:27:37 20° 268° (W) 22:30:51 434.975-435.025
ISS 29 Nov 22:25:10 22:27:48 22° 143° (SE) 22:30:26 145.825
